User: anonymous   Login
Location: Cisewo
(53.3833°N, 14.9000°E)
Time: 02:49:46
(UTC+00:00)
Language:

ERS-1 Rocket - Orbit

View from above orbital plane
View from above orbital plane
View from above satellite
View from above satellite

Ground track
Ground track

The orbit data is extracted from the following two-line orbital elements,

1 21610U 91050F   21174.21726566  .00000015  00000-0  18077-4 0  9998
2 21610  98.4229 244.8735 0002573 205.0263 219.7241 14.40952658571096
Epoch (UTC): 23 June 2021 05:12:51
Eccentricity: 0.0002573
inclination: 98.4229°
perigee height: 753 km
apogee height: 757 km
right ascension of ascending node: 244.8735°
argument of perigee: 205.0263°
revolutions per day: 14.40952658
mean anomaly at epoch: 219.7241°
orbit number at epoch: 57109

The dashed part of the orbit path shows where the satellite is in the earth's shadow,  

DLR